Location: Newark
(47.5833°N, 8.1500°E)
Time: 20:33:41
(UTC+00:00)

SR - All Passes

Search period start: 28 October 2020 00:00
Search period end: 07 November 2020 00:00
Orbit: 581 x 874 km, 66.7° (Epoch: 27 October)

Date Brightness Start Highest point End Pass type
(mag) Time Alt. Az. Time Alt. Az. Time Alt. Az.
28 Oct - 00:51:29 10° SSE 00:54:40 21° ESE 00:57:56 10° ENE night (unlit)
28 Oct - 02:32:12 10° SW 02:36:19 48° NW 02:40:39 10° NNE visible
28 Oct - 04:17:43 10° NW 04:19:31 12° NNW 04:21:22 10° N visible
28 Oct - 07:46:07 10° N 07:48:16 13° NNE 07:50:29 10° NE daylight
28 Oct - 09:26:48 10° NNW 09:31:30 44° NE 09:36:34 10° ESE daylight
28 Oct - 11:09:00 10° NW 11:13:28 33° WSW 11:18:15 10° S daylight
29 Oct - 01:42:18 10° SSW 01:46:32 85° SE 01:50:59 10° NE visible
29 Oct - 03:26:12 10° W 03:29:14 18° NW 03:32:21 10° N visible
29 Oct - 08:37:21 10° NNW 08:41:31 27° NE 08:45:58 10° E daylight
29 Oct - 10:18:59 10° NW 10:23:54 61° WSW 10:29:13 10° SSE daylight
30 Oct - 00:53:00 10° S 00:56:57 40° ESE 01:01:04 10° NE night (unlit)
30 Oct - 02:35:20 10° WSW 02:39:05 29° NW 02:43:01 10° NNE visible
30 Oct - 07:48:03 10° N 07:51:22 18° NE 07:54:52 10° ENE daylight
30 Oct - 09:29:14 10° NNW 09:34:11 74° NE 09:39:35 10° SE daylight
30 Oct - 11:12:17 10° WNW 11:15:49 19° WSW 11:19:30 10° SSW daylight
31 Oct - 00:04:28 10° SSE 00:07:32 20° ESE 00:10:42 10° ENE night (unlit)
31 Oct - 01:44:59 10° SW 01:49:09 52° NW 01:53:31 10° NNE visible
31 Oct - 03:30:18 10° NW 03:32:18 13° NNW 03:34:20 10° N visible
31 Oct - 06:59:01 10° N 07:01:03 12° NNE 07:03:11 10° NE daylight
31 Oct - 08:39:39 10° NNW 08:44:21 42° NE 08:49:24 10° ESE daylight
31 Oct - 10:21:47 10° NW 10:26:21 35° WSW 10:31:15 10° S daylight
01 Nov - 00:55:09 10° SSW 00:59:23 79° SE 01:03:50 10° NE night (unlit)
01 Nov - 02:38:54 10° W 02:42:01 19° NW 02:45:16 10° N visible
01 Nov - 07:50:13 10° NNW 07:54:21 26° NE 07:58:45 10° E daylight
01 Nov - 09:31:48 10° NW 09:36:46 65° WSW 09:42:08 10° SSE daylight
01 Nov - 11:17:52 10° WSW 11:18:01 10° WSW 11:18:09 10° WSW daylight
02 Nov - 00:05:54 10° S 00:09:49 37° ESE 00:13:53 10° NE night (unlit)
02 Nov - 01:48:05 10° WSW 01:51:54 30° NW 01:55:55 10° NNE visible
02 Nov - 07:00:55 10° N 07:04:10 17° NNE 07:07:36 10° ENE daylight
02 Nov - 08:42:04 10° NNW 08:47:02 71° NE 08:52:27 10° SE daylight
02 Nov - 10:25:00 10° WNW 10:28:42 20° WSW 10:32:35 10° SSW daylight
02 Nov - 23:17:28 10° SSE 23:20:25 18° ESE 23:23:26 10° ENE night (unlit)
03 Nov - 00:57:47 10° SW 01:01:58 55° NW 01:06:23 10° NNE night (unlit)
03 Nov - 02:42:55 10° WNW 02:45:05 13° NNW 02:47:18 10° N visible
03 Nov - 06:11:53 10° N 06:13:51 12° NNE 06:15:51 10° NE daylight
03 Nov - 07:52:30 10° NNW 07:57:11 41° NE 08:02:13 10° ESE daylight
03 Nov - 09:34:34 10° NW 09:39:13 37° WSW 09:44:13 10° S daylight
04 Nov - 00:07:59 10° SSW 00:12:13 74° ESE 00:16:41 10° NE night (unlit)
04 Nov - 01:51:35 10° W 01:54:48 20° NW 01:58:10 10° NNE visible
04 Nov - 07:03:04 10° NNW 07:07:10 25° NE 07:11:31 10° E daylight
04 Nov - 08:44:37 10° NW 08:49:37 69° WSW 08:55:03 10° SSE daylight
04 Nov - 10:29:33 10° W 10:30:55 11° WSW 10:32:18 10° WSW daylight
04 Nov - 23:18:48 10° S 23:22:40 35° ESE 23:26:42 10° NE night (unlit)
05 Nov - 01:00:50 10° WSW 01:04:42 32° NW 01:08:48 10° NNE night (unlit)
05 Nov - 06:13:46 10° N 06:16:59 17° NNE 06:20:20 10° ENE daylight
05 Nov - 07:54:54 10° NNW 07:59:53 67° NE 08:05:18 10° SE daylight
05 Nov - 09:37:43 10° WNW 09:41:35 22° WSW 09:45:39 10° SSW daylight
05 Nov - 22:30:29 10° SSE 22:33:17 17° ESE 22:36:10 10° ENE night (unlit)
06 Nov - 00:10:34 10° SW 00:14:47 59° NW 00:19:15 10° NNE night (unlit)
06 Nov - 01:55:31 10° WNW 01:57:52 14° NNW 02:00:16 10° N visible
06 Nov - 05:24:46 10° N 05:26:38 12° NNE 05:28:32 10° NE visible
06 Nov - 07:05:21 10° NNW 07:10:01 39° NE 07:15:02 10° ESE daylight
06 Nov - 08:47:22 10° NW 08:52:06 40° WSW 08:57:11 10° S daylight
06 Nov - 23:20:50 10° SSW 23:25:03 69° ESE 23:29:31 10° NE night (unlit)
